TimeEDT,TemperatureF,Dew PointF,Humidity,Sea Level PressureIn,VisibilityMPH,Wind Direction,Wind SpeedMPH,Gust SpeedMPH,PrecipitationIn,Events,Conditions,WindDirDegrees,DateUTC
12:15 AM,77.2,72.7,86,30.00,10.0,Calm,Calm,-,N/A,,Clear,0,2013-06-27 04:15:00
12:35 AM,77.0,72.5,86,30.00,10.0,Calm,Calm,-,N/A,,Clear,0,2013-06-27 04:35:00
12:55 AM,76.8,72.3,86,29.99,10.0,Calm,Calm,-,N/A,,Clear,0,2013-06-27 04:55:00
1:15 AM,76.6,72.0,85,30.00,10.0,Calm,Calm,-,N/A,,Clear,0,2013-06-27 05:15:00
1:35 AM,76.5,72.0,86,30.00,10.0,Calm,Calm,-,N/A,,Clear,0,2013-06-27 05:35:00
2:15 AM,76.5,71.6,85,30.00,10.0,SW,3.5,-,N/A,,Clear,220,2013-06-27 06:15:00
2:35 AM,76.5,71.8,85,29.99,10.0,SW,3.5,-,N/A,,Clear,230,2013-06-27 06:35:00
2:55 AM,76.3,71.6,85,29.99,10.0,Calm,Calm,-,N/A,,Clear,0,2013-06-27 06:55:00
3:15 AM,76.1,71.6,86,29.99,10.0,Calm,Calm,-,N/A,,Clear,0,2013-06-27 07:15:00
3:35 AM,75.9,71.4,86,29.99,10.0,Calm,Calm,-,N/A,,Clear,0,2013-06-27 07:35:00
3:55 AM,75.4,71.1,86,29.99,10.0,Calm,Calm,-,N/A,,Clear,0,2013-06-27 07:55:00
4:15 AM,75.4,71.1,86,29.98,10.0,Calm,Calm,-,N/A,,Clear,0,2013-06-27 08:15:00
4:35 AM,75.6,71.2,86,29.97,10.0,SW,3.5,-,N/A,,Clear,230,2013-06-27 08:35:00
4:55 AM,75.6,71.2,86,29.96,10.0,SW,3.5,-,N/A,,Clear,220,2013-06-27 08:55:00
5:15 AM,75.6,71.2,86,29.96,10.0,WSW,3.5,-,N/A,,Clear,240,2013-06-27 09:15:00
5:35 AM,75.6,71.4,87,29.97,10.0,SW,3.5,-,N/A,,Scattered Clouds,230,2013-06-27 09:35:00
5:55 AM,75.6,71.6,87,29.98,10.0,Calm,Calm,-,N/A,,Scattered Clouds,0,2013-06-27 09:55:00
6:15 AM,75.6,71.6,87,29.98,10.0,Calm,Calm,-,N/A,,Clear,0,2013-06-27 10:15:00
6:35 AM,75.7,71.8,87,29.99,10.0,WSW,3.5,-,N/A,,Clear,240,2013-06-27 10:35:00
6:55 AM,76.1,72.0,87,29.99,10.0,WSW,3.5,-,N/A,,Scattered Clouds,240,2013-06-27 10:55:00
7:15 AM,76.6,72.5,87,29.99,10.0,WSW,4.6,-,N/A,,Scattered Clouds,240,2013-06-27 11:15:00
7:35 AM,77.5,72.7,85,29.99,10.0,WSW,4.6,-,N/A,,Clear,250,2013-06-27 11:35:00
7:55 AM,78.4,73.4,84,29.99,10.0,West,3.5,-,N/A,,Scattered Clouds,260,2013-06-27 11:55:00
8:15 AM,79.0,73.6,83,29.98,10.0,WSW,5.8,-,N/A,,Scattered Clouds,250,2013-06-27 12:15:00
8:35 AM,80.8,74.1,80,29.99,10.0,West,4.6,-,N/A,,Clear,260,2013-06-27 12:35:00
8:55 AM,82.2,74.1,76,29.98,10.0,West,4.6,-,N/A,,Clear,270,2013-06-27 12:55:00
9:15 AM,83.3,74.1,74,29.98,10.0,West,6.9,-,N/A,,Clear,270,2013-06-27 13:15:00
9:35 AM,84.4,74.5,72,29.98,10.0,West,4.6,-,N/A,,Clear,270,2013-06-27 13:35:00
9:55 AM,85.3,74.5,70,29.98,10.0,West,5.8,-,N/A,,Clear,280,2013-06-27 13:55:00
10:15 AM,84.7,74.3,71,29.98,10.0,West,4.6,-,N/A,,Clear,270,2013-06-27 14:15:00
10:35 AM,86.2,74.1,67,29.97,10.0,West,8.1,-,N/A,,Clear,270,2013-06-27 14:35:00
10:55 AM,88.2,73.4,61,29.97,10.0,West,10.4,17.3,N/A,,Scattered Clouds,260,2013-06-27 14:55:00
11:15 AM,88.5,74.5,63,29.96,10.0,West,8.1,-,N/A,,Scattered Clouds,270,2013-06-27 15:15:00
11:35 AM,88.2,73.2,61,29.96,10.0,West,9.2,19.6,N/A,,Clear,280,2013-06-27 15:35:00
11:55 AM,89.1,73.8,60,29.96,10.0,West,6.9,16.1,N/A,,Scattered Clouds,280,2013-06-27 15:55:00
12:15 PM,89.1,73.4,60,29.96,10.0,West,5.8,-,N/A,,Mostly Cloudy,270,2013-06-27 16:15:00
12:35 PM,89.8,72.7,57,29.95,10.0,West,9.2,-,N/A,,Scattered Clouds,260,2013-06-27 16:35:00
12:55 PM,91.0,72.7,55,29.94,10.0,West,6.9,-,N/A,,Clear,270,2013-06-27 16:55:00
1:15 PM,91.0,71.6,53,29.94,10.0,West,6.9,17.3,N/A,,Scattered Clouds,260,2013-06-27 17:15:00
1:35 PM,92.1,72.9,53,29.93,10.0,West,5.8,-,N/A,,Scattered Clouds,270,2013-06-27 17:35:00
1:55 PM,91.8,71.4,51,29.92,10.0,West,8.1,-,N/A,,Scattered Clouds,270,2013-06-27 17:55:00
2:15 PM,92.3,71.2,50,29.91,10.0,WSW,9.2,-,N/A,,Scattered Clouds,240,2013-06-27 18:15:00
2:35 PM,93.2,70.3,47,29.91,10.0,West,9.2,17.3,N/A,,Scattered Clouds,260,2013-06-27 18:35:00
2:55 PM,93.0,70.0,47,29.90,10.0,WSW,6.9,-,N/A,,Scattered Clouds,250,2013-06-27 18:55:00
3:15 PM,93.9,69.1,44,29.89,10.0,West,8.1,-,N/A,,Scattered Clouds,260,2013-06-27 19:15:00
3:35 PM,92.7,69.4,47,29.87,10.0,WSW,9.2,-,N/A,,Mostly Cloudy,250,2013-06-27 19:35:00
3:55 PM,93.7,68.7,44,29.87,10.0,WSW,10.4,16.1,N/A,,Mostly Cloudy,250,2013-06-27 19:55:00
4:15 PM,92.5,69.8,47,29.86,10.0,WSW,8.1,-,N/A,,Mostly Cloudy,240,2013-06-27 20:15:00
4:35 PM,91.6,70.9,51,29.87,10.0,West,8.1,23.0,N/A,,Mostly Cloudy,270,2013-06-27 20:35:00
4:55 PM,92.5,71.2,50,29.86,10.0,West,5.8,-,N/A,,Scattered Clouds,260,2013-06-27 20:55:00
5:15 PM,92.3,70.5,49,29.86,10.0,WSW,5.8,-,N/A,Thunderstorm,Clear,250,2013-06-27 21:15:00
5:35 PM,89.4,72.9,58,29.84,10.0,SW,6.9,-,N/A,,Clear,220,2013-06-27 21:35:00
5:55 PM,86.4,70.9,60,29.86,10.0,WSW,6.9,-,N/A,,Clear,240,2013-06-27 21:55:00
6:15 PM,85.1,70.0,60,29.86,10.0,WSW,9.2,17.3,N/A,,Clear,240,2013-06-27 22:15:00
6:35 PM,84.7,68.7,58,29.86,10.0,SW,6.9,-,N/A,,Clear,230,2013-06-27 22:35:00
6:55 PM,84.4,68.9,60,29.86,10.0,SW,8.1,-,N/A,,Scattered Clouds,220,2013-06-27 22:55:00
7:15 PM,83.7,68.0,59,29.85,10.0,SW,4.6,-,N/A,,Scattered Clouds,220,2013-06-27 23:15:00
7:35 PM,83.3,68.9,62,29.84,10.0,SW,5.8,-,N/A,,Scattered Clouds,230,2013-06-27 23:35:00
7:55 PM,83.3,69.8,64,29.83,10.0,WSW,4.6,-,N/A,,Clear,240,2013-06-27 23:55:00
8:15 PM,83.1,70.3,65,29.85,10.0,WSW,3.5,-,N/A,,Clear,240,2013-06-28 00:15:00
8:35 PM,82.6,70.7,67,29.85,10.0,SW,5.8,-,N/A,,Clear,220,2013-06-28 00:35:00
8:55 PM,82.4,71.1,68,29.87,10.0,WSW,4.6,-,N/A,,Scattered Clouds,250,2013-06-28 00:55:00
9:15 PM,82.4,71.2,69,29.87,10.0,WSW,4.6,-,N/A,,Mostly Cloudy,240,2013-06-28 01:15:00
9:35 PM,82.4,71.6,70,29.86,10.0,SSW,3.5,-,N/A,,Mostly Cloudy,210,2013-06-28 01:35:00
9:55 PM,81.7,71.6,71,29.85,10.0,SW,4.6,-,N/A,,Clear,230,2013-06-28 01:55:00
10:15 PM,81.7,72.1,73,29.85,10.0,SW,4.6,-,N/A,,Clear,220,2013-06-28 02:15:00
10:35 PM,81.9,72.5,73,29.85,10.0,SW,4.6,-,N/A,,Clear,230,2013-06-28 02:35:00
10:55 PM,81.9,72.7,74,29.86,10.0,WSW,3.5,-,N/A,,Clear,250,2013-06-28 02:55:00
11:15 PM,81.5,72.9,75,29.87,10.0,WSW,3.5,-,N/A,,Clear,240,2013-06-28 03:15:00
11:35 PM,81.3,72.9,75,29.88,10.0,WSW,4.6,-,N/A,,Clear,240,2013-06-28 03:35:00
11:55 PM,81.0,72.7,76,29.88,10.0,WSW,4.6,-,N/A,,Clear,240,2013-06-28 03:55:00